Soldotna, AK

9:05 AM AKDT on June 29, 2017 (GMT -0800)
Soldotna

Weather History for PASX - August, 2013

Change the Weather History Date:

Friday, August 23, 2013

  Actual Average Record
Temperature  
Mean Temperature 58 °F -  
Max Temperature 66 °F 61 °F 75 °F (2004)
Min Temperature 50 °F 42 °F 34 °F (1978)
Degree Days  
Heating Degree Days 7    
Growing Degree Days 8 (Base 50)    
Moisture  
Dew Point 50 °F    
Average Humidity 76    
Maximum Humidity 94    
Minimum Humidity 49    
Precipitation  
Precipitation 0.00 in - - ()
Sea Level Pressure  
Sea Level Pressure 29.58 in    
Wind  
Wind Speed 5 mph (WSW)    
Max Wind Speed 12 mph    
Max Gust Speed -    
Visibility 10 miles    
Events      
Averages and records for this station are not official NWS values.
T = Trace of Precipitation, MM = Missing Value Source: NWS Daily Summary

Daily Weather History Graph

Daily Weather History Graph

Search for Another Location

Airport or City:

Trip Planner

Search our weather history database for the weather conditions in past years. The results will help you decide how hot, cold, wet, or windy it might be!

Date:

Astronomy

Aug. 23, 2013 Rise Set
Actual Time 6:37 AM AKDT 9:34 PM AKDT
Civil Twilight 5:48 AM AKDT 10:22 PM AKDT
Nautical Twilight 4:40 AM AKDT 11:29 PM AKDT
Astronomical Twilight 2:34 AM AKDT 1:22 AM AKDT
Moon 9:46 PM AKDT (8/23) 10:49 AM AKDT (8/23)
Length of Visible Light 16h 34m
Length of Day
14h 57m
Waning Gibbous, 90% of the Moon is Illuminated
Aug 23
Waning Gibbous
Aug 28
Last Quarter
Sep 5
New
Sep 12
First Quarter
Sep 19
Full

Hourly Weather History & Observations

Time (AKDT) Temp. Dew Point Humidity Pressure Visibility Wind Dir Wind Speed Gust Speed Precip Events Conditions
12:16 AM 55.4 °F 51.8 °F 88% 29.67 in 10.0 mi SSE 5.8 mph - N/A   Overcast
12:36 AM 55.4 °F 51.8 °F 88% 29.67 in 10.0 mi SSE 5.8 mph - N/A   Overcast
12:56 AM 55.4 °F 51.8 °F 88% 29.66 in 10.0 mi SSE 4.6 mph - N/A   Overcast
1:16 AM 53.6 °F 51.8 °F 94% 29.66 in 10.0 mi SSE 5.8 mph - N/A   Overcast
1:36 AM 55.4 °F 51.8 °F 88% 29.66 in 10.0 mi SSE 4.6 mph - N/A   Overcast
1:56 AM 55.4 °F 51.8 °F 88% 29.65 in 10.0 mi South 6.9 mph - N/A   Overcast
2:16 AM 55.4 °F 51.8 °F 88% 29.65 in 10.0 mi South 3.5 mph - N/A   Overcast
2:36 AM 55.4 °F 51.8 °F 88% 29.64 in 10.0 mi SSE 5.8 mph - N/A   Overcast
2:56 AM 55.4 °F 51.8 °F 88% 29.64 in 10.0 mi SSE 3.5 mph - N/A   Overcast
3:16 AM 55.4 °F 51.8 °F 88% 29.64 in 10.0 mi South 6.9 mph - N/A   Overcast
3:36 AM 55.4 °F 51.8 °F 88% 29.63 in 10.0 mi South 5.8 mph - N/A   Overcast
3:56 AM 55.4 °F 51.8 °F 88% 29.62 in 10.0 mi South 5.8 mph - N/A   Overcast
4:16 AM 55.4 °F 51.8 °F 88% 29.62 in 10.0 mi South 6.9 mph - N/A   Overcast
4:36 AM 55.4 °F 51.8 °F 88% 29.61 in 10.0 mi South 6.9 mph - N/A   Overcast
4:56 AM 55.4 °F 51.8 °F 88% 29.61 in 10.0 mi South 5.8 mph - N/A   Scattered Clouds
5:16 AM 53.6 °F 51.8 °F 94% 29.60 in 10.0 mi SSE 4.6 mph - N/A   Clear
5:36 AM 53.6 °F 51.8 °F 94% 29.61 in 10.0 mi SSW 4.6 mph - N/A   Scattered Clouds
5:56 AM 53.6 °F 51.8 °F 94% 29.60 in 10.0 mi Calm Calm - N/A   Scattered Clouds
6:16 AM 53.6 °F 50.0 °F 88% 29.60 in 10.0 mi ESE 3.5 mph - N/A   Partly Cloudy
6:36 AM 53.6 °F 50.0 °F 88% 29.60 in 10.0 mi Calm Calm - N/A   Clear
6:56 AM 51.8 °F 48.2 °F 88% 29.59 in 10.0 mi Calm Calm - N/A   Clear
7:16 AM 50.0 °F 46.4 °F 87% 29.59 in 1.5 mi Calm Calm - N/A   Clear
7:36 AM 51.8 °F 48.2 °F 88% 29.59 in 10.0 mi Calm Calm - N/A   Clear
7:56 AM 51.8 °F 48.2 °F 88% 29.59 in 10.0 mi Calm Calm - N/A   Clear
8:16 AM 53.6 °F 50.0 °F 88% 29.59 in 10.0 mi Calm Calm - N/A   Clear
8:36 AM 55.4 °F 51.8 °F 88% 29.59 in 10.0 mi SSW 5.8 mph - N/A   Clear
8:56 AM 55.4 °F 51.8 °F 88% 29.58 in 10.0 mi South 8.1 mph - N/A   Clear
9:16 AM 55.4 °F 51.8 °F 88% 29.58 in 10.0 mi South 8.1 mph - N/A   Clear
9:36 AM 57.2 °F 51.8 °F 82% 29.59 in 10.0 mi South 4.6 mph - N/A   Clear
9:56 AM 57.2 °F 51.8 °F 82% 29.59 in 10.0 mi Calm Calm - N/A   Clear
10:16 AM 59.0 °F 51.8 °F 77% 29.59 in 10.0 mi WSW 6.9 mph - N/A   Scattered Clouds
10:36 AM 57.2 °F 51.8 °F 82% 29.59 in 10.0 mi SSW 5.8 mph - N/A   Mostly Cloudy
10:56 AM 59.0 °F 51.8 °F 77% 29.58 in 10.0 mi WSW 4.6 mph - N/A   Overcast
11:16 AM 60.8 °F 51.8 °F 72% 29.58 in 10.0 mi SSW 6.9 mph - N/A   Overcast
11:36 AM 59.0 °F 53.6 °F 82% 29.58 in 10.0 mi WNW 6.9 mph - N/A   Overcast
11:56 AM 59.0 °F 53.6 °F 82% 29.58 in 10.0 mi West 5.8 mph - N/A   Mostly Cloudy
12:16 PM 60.8 °F 53.6 °F 77% 29.58 in 10.0 mi WNW 6.9 mph - N/A   Mostly Cloudy
12:36 PM 60.8 °F 53.6 °F 77% 29.58 in 10.0 mi WNW 5.8 mph - N/A   Mostly Cloudy
12:56 PM 60.8 °F 51.8 °F 72% 29.58 in 10.0 mi WNW 5.8 mph - N/A   Mostly Cloudy
1:16 PM 60.8 °F 53.6 °F 77% 29.57 in 10.0 mi NNW 4.6 mph - N/A   Overcast
1:36 PM 60.8 °F 53.6 °F 77% 29.57 in 10.0 mi Calm Calm - N/A   Scattered Clouds
1:56 PM 62.6 °F 53.6 °F 72% 29.56 in 10.0 mi NW 5.8 mph - N/A   Clear
2:16 PM 64.4 °F 51.8 °F 64% 29.56 in 10.0 mi SW 4.6 mph - N/A   Clear
2:36 PM 64.4 °F 48.2 °F 56% 29.56 in 10.0 mi WNW 6.9 mph - N/A   Mostly Cloudy
2:56 PM 64.4 °F 53.6 °F 68% 29.55 in 10.0 mi WNW 6.9 mph - N/A   Mostly Cloudy
3:16 PM 64.4 °F 50.0 °F 59% 29.55 in 10.0 mi West 6.9 mph - N/A   Mostly Cloudy
3:36 PM 64.4 °F 48.2 °F 56% 29.55 in 10.0 mi WNW 6.9 mph - N/A   Mostly Cloudy
3:56 PM 64.4 °F 50.0 °F 59% 29.54 in 10.0 mi WNW 10.4 mph - N/A   Overcast
4:16 PM 64.4 °F 51.8 °F 64% 29.54 in 10.0 mi WNW 8.1 mph - N/A   Overcast
4:36 PM 64.4 °F 51.8 °F 64% 29.54 in 10.0 mi WNW 8.1 mph - N/A   Scattered Clouds
4:56 PM 66.2 °F 50.0 °F 56% 29.53 in 10.0 mi WNW 11.5 mph - N/A   Clear
5:16 PM 66.2 °F 50.0 °F 56% 29.52 in 10.0 mi WNW 10.4 mph - N/A   Clear
5:36 PM 66.2 °F 46.4 °F 49% 29.52 in 10.0 mi West 10.4 mph - N/A   Clear
5:56 PM 66.2 °F 46.4 °F 49% 29.52 in 10.0 mi WNW 10.4 mph - N/A   Clear
6:16 PM 64.4 °F 48.2 °F 56% 29.52 in 10.0 mi WNW 9.2 mph - N/A   Clear
6:36 PM 64.4 °F 46.4 °F 52% 29.52 in 10.0 mi West 8.1 mph - N/A   Clear
6:56 PM 64.4 °F 46.4 °F 52% 29.51 in 10.0 mi WNW 9.2 mph - N/A   Clear
7:16 PM 64.4 °F 46.4 °F 52% 29.52 in 10.0 mi West 9.2 mph - N/A   Clear
7:36 PM 62.6 °F 46.4 °F 55% 29.52 in 10.0 mi West 9.2 mph - N/A   Clear
7:56 PM 62.6 °F 46.4 °F 55% 29.52 in 10.0 mi West 9.2 mph - N/A   Clear
8:16 PM 62.6 °F 44.6 °F 52% 29.52 in 10.0 mi WNW 8.1 mph - N/A   Clear
8:36 PM 60.8 °F 44.6 °F 55% 29.52 in 10.0 mi West 6.9 mph - N/A   Clear
8:56 PM 60.8 °F 46.4 °F 59% 29.52 in 10.0 mi West 4.6 mph - N/A   Scattered Clouds
9:16 PM 59.0 °F 46.4 °F 63% 29.53 in 10.0 mi NW 3.5 mph - N/A   Partly Cloudy
9:36 PM 55.4 °F 46.4 °F 72% 29.53 in 10.0 mi SW 3.5 mph - N/A   Partly Cloudy
9:56 PM 55.4 °F 46.4 °F 72% 29.54 in 10.0 mi Calm Calm - N/A   Mostly Cloudy
10:16 PM 53.6 °F 46.4 °F 77% 29.55 in 10.0 mi Calm Calm - N/A   Overcast
10:36 PM 53.6 °F 46.4 °F 77% 29.55 in 10.0 mi Calm Calm - N/A   Mostly Cloudy
10:56 PM 51.8 °F 46.4 °F 82% 29.55 in 10.0 mi Calm Calm - N/A   Mostly Cloudy
11:16 PM 51.8 °F 46.4 °F 82% 29.55 in 10.0 mi Calm Calm - N/A   Overcast
11:36 PM 51.8 °F 46.4 °F 82% 29.56 in 10.0 mi North 3.5 mph - N/A   Mostly Cloudy
11:56 PM 50.0 °F 44.6 °F 82% 29.56 in 10.0 mi Calm Calm - N/A   Mostly Cloudy